Location: Casco Millpond
(44.5581°N, 87.6111°W)
Time: 09:28:47
(UTC+00:00)

Cosmos 1707 Rocket - Pass Details

Date: 16 January 2026
Orbit: 598 x 624 km, 82.5° (Epoch: 9 February)

Event Time Altitude Azimuth Distance (km) Brightness Sun altitude
Rises 12:14:01 0° 349° (N) 2,858 6.7 -12.1°
Reaches altitude 10° 12:16:14 10° 348° (NNW) 1,953 5.8 -11.7°
Maximum altitude 12:20:31 73° 265° (W) 636 3.4 -11.0°
Drops below altitude 10° 12:24:49 10° 180° (S) 1,949 6.4 -10.3°
Sets 12:27:02 0° 178° (S) 2,852 7.3 -9.9°
